Dewpoint
24 24 24 25 25 25 24 24 24 24 24 24 24 24 25 25 25 25 25 25 25 25 25 25 25 25 25 25 25 25 25 25 25 25 25 25 24 24 24 24 24 24 25 25 25 25 25 25 25 25 26 26 26 26 26 25 26 26 26 26 26 27 27 27 27 28 28 28 28
22 23 24 24 24 24 24 24 23 23 23 23 23 24 24 24 24 24 24 24 24 24 24 24 24 24 24 24 25 25 25 25 25 25 25 25 25 24 24 24 24 24 24 24 25 25 25 25 25 25 25 25 25 25 25 25 25 25 25 25 26 26 26 27 27 27 28 28 28
21 21 21 22 22 21 22 22 22 22 22 22 22 22 23 23 23 23 23 23 23 24 24 24 23 23 24 24 24 24 24 24 24 24 24 24 25 25 25 24 24 25 25 25 25 25 25 25 25 25 25 25 24 24 24 25 25 25 25 25 25 26 26 26 26 27 27 27 28
20 20 20 20 20 20 20 20 20 21 21 21 21 21 21 22 22 22 22 22 22 22 22 22 21 21 22 22 23 23 23 24 24 24 24 24 24 24 24 25 25 25 25 25 25 25 24 25 25 24 24 24 24 24 24 24 25 25 25 25 25 26 26 26 26 26 26 26 27
18 18 19 18 18 18 19 19 20 20 20 20 20 20 20 20 20 20 21 21 21 22 21 21 20 20 20 21 21 22 22 22 23 23 23 24 24 24 24 24 25 25 25 25 25 25 24 24 24 24 24 24 24 24 24 24 24 25 25 25 25 26 26 26 26 26 27 27 27
17 17 17 18 18 18 18 18 18 19 19 19 20 20 19 20 20 20 20 20 21 21 21 21 20 20 20 20 20 21 21 21 22 22 23 23 24 24 24 24 25 25 25 25 25 25 25 25 24 24 24 24 23 23 24 24 25 25 25 25 25 25 26 26 26 27 27 28 28
17 17 17 17 17 17 17 17 18 18 18 19 19 19 19 19 19 19 19 20 20 20 20 20 20 20 19 19 20 20 20 20 21 21 22 22 22 23 24 24 24 24 24 24 24 24 24 25 24 24 24 24 24 24 25 26 26 26 25 25 24 24 25 26 26 26 26 27 27
17 17 17 17 17 17 17 17 17 17 18 18 18 18 18 18 18 18 19 19 19 19 19 19 19 19 19 19 19 19 19 19 20 20 21 21 21 22 23 24 24 24 24 24 24 24 24 24 23 23 24 24 24 25 26 27 27 27 27 26 25 25 26 28 27 27 26 26 26
17 17 17 17 17 17 17 17 17 17 17 17 17 17 18 18 18 18 18 18 19 19 19 19 19 19 19 19 19 19 19 19 19 19 20 20 21 22 23 23 24 24 24 24 24 24 24 24 23 24 24 24 24 26 27 28 28 28 27 26 26 26 26 26 27 27 26 25 25
17 17 17 17 17 17 17 16 17 17 17 17 17 17 17 18 18 18 17 18 18 18 18 18 18 18 18 18 18 18 18 18 18 19 19 19 20 22 23 23 23 23 23 24 24 24 24 24 24 25 26 26 26 27 28 29 29 28 27 26 26 27 27 27 27 27 27 27 27
17 17 17 17 17 17 17 16 16 16 16 16 16 17 17 17 17 17 17 17 17 17 18 18 19 19 19 18 18 18 18 18 18 19 19 20 21 22 23 23 23 23 24 24 24 24 24 24 25 26 26 27 27 28 29 29 29 29 29 28 29 29 29 29 29 29 29 29 30
17 17 17 17 17 16 16 16 16 16 16 16 16 16 16 16 17 17 17 17 18 17 17 17 19 20 20 19 18 18 18 19 19 19 19 19 20 22 23 23 23 24 24 24 24 24 25 25 26 26 27 27 29 29 30 30 30 29 29 29 29 29 29 29 28 28 28 27 27
17 17 17 17 16 16 16 15 15 16 16 16 16 16 16 16 16 17 17 18 17 17 17 17 20 21 21 21 20 20 20 20 20 20 20 19 20 21 22 23 23 24 24 24 24 25 25 25 26 27 28 29 29 29 28 27 26 25 25 24 24 23 23 23 23 24 24 24 24
17 17 17 16 16 16 15 15 15 15 15 16 16 16 15 15 16 17 17 18 17 16 17 17 20 21 21 21 21 21 22 22 22 22 21 20 20 20 22 23 23 24 24 24 24 25 25 25 26 27 28 28 27 25 24 24 23 23 23 22 22 22 23 23 23 24 24 23 23
17 17 17 16 16 15 15 15 15 15 15 15 15 15 15 14 15 16 17 17 16 16 16 17 19 20 21 21 22 22 23 23 23 22 22 22 21 21 21 22 23 24 24 24 24 25 25 26 28 28 28 26 25 24 24 24 24 24 24 24 24 24 24 24 24 24 24 24 24
17 17 16 16 16 15 15 15 15 15 15 15 14 14 14 13 14 15 16 16 16 16 16 16 18 20 21 21 22 23 23 23 23 23 23 23 22 22 22 22 23 23 24 24 25 26 27 28 28 27 26 24 24 23 24 24 24 24 24 24 24 24 24 24 24 24 24 24 24
17 17 17 16 16 16 15 15 15 15 15 14 13 13 13 13 14 15 15 16 16 16 16 16 17 18 20 20 22 23 23 23 23 23 23 23 24 23 23 22 22 23 24 25 26 26 27 27 26 25 24 23 22 22 22 23 23 24 24 24 24 24 25 24 25 25 24 25 24
18 17 17 16 15 15 15 15 14 14 14 13 13 13 13 14 14 15 15 16 16 15 15 15 16 17 19 20 21 22 23 23 23 24 24 24 24 24 24 24 24 24 24 26 26 26 25 24 24 24 23 23 22 22 22 23 23 24 24 24 24 25 25 24 25 25 25 25 24
17 16 15 15 14 14 14 13 13 13 13 13 13 13 14 14 15 15 15 16 16 15 15 15 16 17 19 20 21 21 22 22 23 24 24 24 25 25 25 25 25 25 24 24 24 24 24 23 23 23 23 23 23 23 23 24 24 24 25 25 26 26 26 27 27 27 27 27 26
15 15 14 13 13 12 12 12 12 12 13 13 13 14 14 15 15 15 15 15 15 15 15 15 17 18 20 20 20 20 20 21 22 22 23 24 24 24 24 24 24 23 23 22 22 22 22 22 23 23 24 24 25 26 26 27 27 28 28 28 27 27 27 26 26 26 27 27 27
13 12 12 12 11 11 12 12 12 13 13 13 14 14 15 15 15 15 15 15 15 16 16 17 18 19 19 19 19 19 19 20 20 21 21 22 22 22 22 22 22 22 22 22 22 22 23 24 25 25 26 26 26 25 24 24 23 23 22 22 22 22 22 22 22 22 23 24 24
12 11 11 11 11 12 12 12 13 13 14 15 15 15 15 15 15 15 15 15 16 17 18 19 19 19 18 18 17 18 18 19 20 20 20 21 21 21 21 22 22 23 23 24 24 25 26 26 26 25 24 23 22 21 20 20 20 19 18 19 19 20 20 20 20 21 21 22 23
12 11 11 11 12 12 13 13 14 14 15 15 15 15 15 15 15 15 15 16 17 17 18 18 17 17 17 17 17 18 18 18 19 20 20 20 20 21 22 23 24 24 25 26 26 25 24 23 22 21 20 20 20 20 20 20 20 20 20 20 21 22 23 23 23 23 23 22 23
12 12 12 12 12 13 13 14 15 15 15 14 14 14 14 14 14 15 15 15 15 15 15 15 15 15 16 17 18 18 18 18 19 19 20 20 20 21 22 24 24 24 24 24 24 23 23 22 22 22 22 23 23 24 24 25 25 25 25 24 24 25 25 26 27 27 27 27 27
12 12 12 12 13 14 15 15 15 15 13 12 12 12 13 13 14 14 14 14 14 14 14 14 15 15 15 17 18 18 19 19 19 19 20 20 21 22 23 23 23 22 22 22 24 24 24 24 24 24 24 25 25 24 24 24 23 23 23 23 22 22 22 22 22 22 22 22 22
12 12 13 13 15 15 15 15 14 13 12 11 11 11 12 13 13 13 13 13 14 14 14 14 15 15 16 17 18 18 19 19 19 20 20 21 22 22 22 22 22 22 23 23 23 23 23 23 22 22 21 22 22 21 21 21 21 20 20 20 20 20 20 20 19 19 20 21 21
12 13 14 15 16 15 14 13 12 11 11 11 11 11 12 12 13 13 13 14 14 14 14 15 15 16 17 17 17 18 19 19 20 20 21 21 21 20 19 18 19 20 20 20 20 20 20 20 20 20 20 20 20 20 20 19 20 20 20 20 20 19 19 18 17 17 18 19 19
13 14 15 16 16 15 13 12 12 11 11 11 11 12 12 12 13 13 13 13 13 14 14 14 14 15 17 17 18 19 20 20 20 20 19 19 17 16 15 15 16 17 18 18 18 19 19 19 19 20 20 20 20 20 20 19 20 20 19 19 18 18 17 16 16 16 16 16 17
15 15 16 16 15 13 12 13 12 11 11 12 12 13 13 13 13 13 12 12 12 13 14 14 15 16 17 17 18 18 17 16 16 16 15 15 15 15 14 14 14 15 17 18 18 19 19 19 19 19 19 19 19 18 18 19 19 19 19 19 18 17 16 16 16 16 15 15 15
16 16 15 15 13 12 11 12 12 12 12 12 13 13 13 12 12 12 11 11 12 13 14 15 16 16 15 14 13 12 12 11 13 14 14 15 14 14 14 13 14 15 17 18 18 18 18 18 18 18 18 18 18 18 18 18 18 17 17 17 16 16 15 15 15 15 14 14 13
16 15 15 14 13 12 11 12 12 13 13 14 14 13 13 12 12 12 12 12 13 15 15 15 14 13 11 8 8 8 9 11 12 13 14 14 14 13 12 12 13 15 16 17 17 17 17 18 18 18 17 17 17 17 17 17 16 16 15 15 15 14 14 14 14 13 13 13 13
17 15 14 13 13 12 12 13 13 13 13 14 14 13 13 12 12 12 13 14 15 15 14 11 10 8 6 6 6 8 9 11 12 13 13 13 12 12 12 12 13 14 15 17 17 17 17 18 18 17 17 17 17 17 17 16 16 15 15 14 14 14 14 15 14 14 13 13 13
16 15 13 12 12 12 13 13 12 12 13 13 13 13 13 12 13 13 13 15 16 14 11 8 8 7 6 7 8 9 10 11 12 12 12 12 11 11 11 11 12 14 16 17 17 17 18 18 18 17 17 17 18 18 17 16 16 16 15 15 15 15 15 15 15 15 15 15 15
15 13 12 12 12 12 13 13 13 13 12 13 13 13 13 13 13 13 13 14 15 12 10 8 7 7 7 8 9 10 11 12 12 12 12 11 11 11 11 11 13 15 17 17 17 17 17 17 17 18 18 18 19 19 18 18 18 18 17 17 17 17 18 19 19 20 20 21 21
15 13 11 12 11 12 13 13 13 12 12 12 12 12 13 13 13 12 11 12 13 12 11 9 8 8 8 9 10 11 12 13 12 12 11 11 11 11 11 11 12 14 16 17 17 17 17 17 18 18 19 19 19 19 19 19 19 19 19 19 19 20 20 21 21 21 21 21 20
15 12 11 11 11 11 12 12 12 12 12 12 13 13 13 12 12 11 11 12 13 12 11 9 8 8 8 9 11 11 12 12 12 11 11 11 11 11 11 11 11 14 16 17 17 17 17 17 18 19 19 19 19 19 19 19 18 18 17 16 16 16 17 18 19 19 19 20 20
15 12 10 11 11 11 11 12 12 12 12 13 13 13 12 12 11 11 11 12 13 12 11 9 8 8 9 10 11 12 12 12 12 11 11 12 11 11 11 11 12 14 16 17 17 17 17 18 18 19 19 18 18 18 17 17 17 16 16 16 16 17 17 19 19 19 19 18 18
13 11 11 12 11 11 11 12 12 12 13 13 13 12 12 11 11 11 11 13 13 12 11 9 9 9 10 11 12 12 12 12 12 12 12 12 12 12 12 12 13 14 15 16 17 17 18 18 19 19 19 18 17 17 17 17 17 17 17 17 17 17 17 16 15 15 15 16 16
10 10 11 13 11 11 11 11 12 12 13 13 12 12 11 11 11 11 12 14 13 12 11 10 9 10 11 12 12 12 12 11 11 11 11 11 11 12 13 13 13 13 14 16 17 17 18 18 19 19 19 18 18 17 17 17 17 17 17 16 15 14 13 13 13 13 13 15 16
9 10 12 13 11 10 11 11 12 12 13 13 12 12 11 11 11 12 13 13 12 12 11 10 10 11 11 12 11 11 11 10 10 11 11 11 11 13 14 13 12 12 13 15 16 17 18 18 19 19 19 18 17 18 18 18 17 16 15 14 13 13 12 12 13 13 13 14 15
11 11 12 13 11 10 10 11 12 12 13 12 12 12 12 12 12 12 12 12 12 11 11 11 11 11 11 11 10 10 9 9 9 9 10 11 11 13 13 12 12 12 12 14 15 17 17 18 18 19 18 17 18 18 18 17 15 14 13 13 13 13 13 13 14 14 15 15 15